Tracking 32936 objects as of 16-Jan-2026
HD Live streaming from Space Station
objects crossing your sky now

DELTA 1 DEB

Track DELTA 1 DEB now!
10-day predictions


NORAD ID: 10730
Int'l Code: 1975-027E
Perigee: 838.7 km
Apogee: 1,000.0 km
Inclination: 115.0 °
Period: 103.2 minutes
Semi major axis: 7290 km
RCS: 2.1029 m2 (large)
Launch date: April 9, 1975
Source: United States (US)
Launch site: AIR FORCE WESTERN TEST RANGE (AFWTR)

Note: This is SATELLITE DEBRIS
Your satellite tracking list
Your tracking list is empty




NASA's NSSDC Master Catalog

Two Line Element Set (TLE):
1 10730U 75027E   26016.30037953 -.00000263  00000-0 -69050-4 0  9994
2 10730 114.9816 326.9131 0110672 317.9196  41.3413 13.94695069582981
Source of the keplerian elements: AFSPC